Date String (YYYY-MM-DD hh:mm:ss) UTC,Instrument flags,absolute air pressure of the measurement (hPa),sample flow rate (lpm),inlet stack bypass flow (lpm),air temperature of the measurement (°C),ambient temperature measured by the external sensor (°C),aerosol sample conditioner tube jacket temperature (°C),OPC LED temperature (°C),internal box temperature (°C),relative humidity of the measurement (%),span deviation,mass concentration of particles derived from Lorenz-Mie calculation of OPC scattering (μg/m³),mass concentration of particles derived from Lorenz-Mie calculation of OPC scattering (μg/m³),mass concentration of particles derived from Lorenz-Mie calculation of OPC scattering (μg/m³)
DateTimeUTC,F1_M11,P_M11,Q1_M11,Q2_M11,T1_M11,T2_M11,T3_M11,T4_M11,T5_M11,U1_M11,ZSPAN_M11,X0_M11,X2_M11,X1_M11
2023-07-25 01:00:00,SystemResetWarning,0834.8,5.00,000.00,029.9,024.9,000.0,037.3,030.3,30.7,0000.0,0016.67,0005.54,0004.32
2023-07-25 01:01:00,SystemResetWarning,0835.1,5.01,000.00,029.8,025.0,000.0,037.3,030.2,31.0,0000.0,0017.20,0005.56,0004.33
2023-07-25 01:02:00,SystemResetWarning,0835.0,5.01,000.00,029.7,025.4,000.0,037.4,030.2,31.2,0000.0,0017.51,0005.60,0004.33
2023-07-25 01:03:00,SystemResetWarning,0835.2,5.00,000.00,029.7,025.9,000.0,037.5,030.3,30.9,0000.0,0018.64,0005.65,0004.33
2023-07-25 01:04:00,SystemResetWarning,0834.9,4.99,000.00,029.7,026.3,000.0,037.5,030.4,28.6,0000.0,0018.77,0005.69,0004.32
2023-07-25 01:05:00,SystemResetWarning,0835.0,5.00,000.00,029.7,026.7,000.0,037.6,030.5,28.3,0000.0,0018.31,0005.68,0004.31
2023-07-25 01:06:00,SystemResetWarning,0834.7,5.00,000.00,029.8,027.1,000.0,037.7,030.6,28.2,0000.0,0019.78,0005.71,0004.30
2023-07-25 01:07:00,SystemResetWarning,0834.7,5.00,000.00,029.8,027.1,000.0,037.7,030.7,29.4,0000.0,0020.92,0005.73,0004.31
2023-07-25 01:08:00,SystemResetWarning,0834.7,4.98,000.00,029.8,025.8,000.0,037.6,030.5,29.4,0000.0,0020.55,0005.71,0004.31
2023-07-25 01:09:00,SystemResetWarning,0834.8,5.00,000.00,029.7,024.9,000.0,037.5,030.3,29.7,0000.0,0019.22,0005.68,0004.31
2023-07-25 01:10:00,SystemResetWarning,0834.7,5.01,000.00,029.7,025.0,000.0,037.5,030.2,28.1,0000.0,0019.01,0005.67,0004.30
2023-07-25 01:11:00,SystemResetWarning,0834.8,5.01,000.00,029.6,025.4,000.0,037.5,030.2,28.3,0000.0,0019.01,0005.57,0004.30
2023-07-25 01:12:00,SystemResetWarning,0834.7,4.99,000.00,029.5,025.8,000.0,037.6,030.3,29.2,0000.0,0017.76,0005.50,0004.29
2023-07-25 01:13:00,SystemResetWarning,0834.8,4.99,000.00,029.5,026.3,000.0,037.6,030.4,29.0,0000.0,0018.17,0005.43,0004.28
2023-07-25 01:14:00,SystemResetWarning,0834.7,5.01,000.00,029.5,026.8,000.0,037.6,030.5,28.6,0000.0,0017.68,0005.34,0004.26
2023-07-25 01:15:00,SystemResetWarning,0834.7,5.01,000.00,029.6,027.1,000.0,037.7,030.6,29.2,0000.0,0017.34,0005.23,0004.24
2023-07-25 01:16:00,SystemResetWarning,0834.7,4.99,000.00,029.6,027.5,000.0,037.7,030.8,29.3,0000.0,0017.01,0005.16,0004.24
2023-07-25 01:17:00,SystemResetWarning,0834.7,4.98,000.00,029.6,026.8,000.0,037.6,030.7,29.6,0000.0,0017.12,0005.13,0004.24
2023-07-25 01:18:00,SystemResetWarning,0834.9,5.00,000.00,029.6,025.4,000.0,037.5,030.5,30.1,0000.0,0015.75,0005.08,0004.23
2023-07-25 01:19:00,SystemResetWarning,0834.9,5.00,000.00,029.5,025.0,000.0,037.4,030.3,28.7,0000.0,0015.93,0005.08,0004.23
2023-07-25 01:20:00,SystemResetWarning,0834.9,5.01,000.00,029.4,025.2,000.0,037.5,030.2,28.5,0000.0,0016.11,0005.11,0004.23
2023-07-25 01:21:00,SystemResetWarning,0834.7,5.00,000.00,029.3,025.6,000.0,037.5,030.2,28.6,0000.0,0015.41,0005.11,0004.22
2023-07-25 01:22:00,SystemResetWarning,0834.7,4.99,000.00,029.3,026.1,000.0,037.5,030.4,28.7,0000.0,0014.80,0005.09,0004.22
2023-07-25 01:23:00,SystemResetWarning,0834.8,5.00,000.00,029.3,026.5,000.0,037.5,030.5,28.5,0000.0,0015.26,0005.08,0004.21
2023-07-25 01:24:00,SystemResetWarning,0835.3,5.01,000.00,029.3,027.0,000.0,037.5,030.6,28.6,0000.0,0015.11,0005.10,0004.20
2023-07-25 01:25:00,SystemResetWarning,0835.3,5.01,000.00,029.4,027.3,000.0,037.6,030.7,31.0,0000.0,0014.44,0005.09,0004.20
2023-07-25 01:26:00,SystemResetWarning,0835.4,4.99,000.00,029.4,026.8,000.0,037.5,030.7,31.7,0000.0,0015.13,0005.09,0004.20
2023-07-25 01:27:00,SystemResetWarning,0835.1,5.00,000.00,029.4,025.4,000.0,037.4,030.4,30.9,0000.0,0014.97,0005.10,0004.19
2023-07-25 01:28:00,SystemResetWarning,0835.3,5.01,000.00,029.3,024.9,000.0,037.3,030.2,29.9,0000.0,0013.87,0005.08,0004.18
2023-07-25 01:29:00,SystemResetWarning,0835.4,5.01,000.00,029.2,025.1,000.0,037.3,030.1,31.1,0000.0,0013.62,0005.08,0004.17
2023-07-25 01:30:00,SystemResetWarning,0835.0,5.00,000.00,029.1,025.5,000.0,037.4,030.1,32.3,0000.0,0013.74,0005.07,0004.16
2023-07-25 01:31:00,SystemResetWarning,0835.0,5.00,000.00,029.1,026.0,000.0,037.4,030.3,33.6,0000.0,0013.69,0005.07,0004.15
2023-07-25 01:32:00,SystemResetWarning,0835.0,5.00,000.00,029.1,026.5,000.0,037.4,030.4,34.0,0000.0,0013.97,0005.14,0004.15
2023-07-25 01:33:00,SystemResetWarning,0835.1,5.01,000.00,029.2,026.9,000.0,037.4,030.5,33.8,0000.0,0013.74,0005.14,0004.16
2023-07-25 01:34:00,SystemResetWarning,0835.1,5.00,000.00,029.2,027.2,000.0,037.4,030.6,34.6,0000.0,0013.01,0005.17,0004.16
2023-07-25 01:35:00,SystemResetWarning,0835.1,4.98,000.00,029.2,026.8,000.0,037.4,030.6,34.6,0000.0,0012.63,0005.17,0004.15
2023-07-25 01:36:00,SystemResetWarning,0835.1,5.00,000.00,029.2,025.4,000.0,037.3,030.3,33.7,0000.0,0012.91,0005.15,0004.16
2023-07-25 01:37:00,SystemResetWarning,0835.1,4.99,000.00,029.1,024.8,000.0,037.2,030.2,34.0,0000.0,0012.27,0005.19,0004.16
2023-07-25 01:38:00,SystemResetWarning,0835.2,5.04,000.00,029.1,025.0,000.0,037.2,030.0,34.0,0000.0,0012.99,0005.20,0004.16
2023-07-25 01:39:00,SystemResetWarning,0835.1,4.98,000.00,029.0,025.4,000.0,037.2,030.1,33.0,0000.0,0013.66,0005.21,0004.17
2023-07-25 01:40:00,SystemResetWarning,0835.1,5.00,000.00,029.1,025.9,000.0,037.3,030.2,32.9,0000.0,0014.21,0005.18,0004.17
2023-07-25 01:41:00,SystemResetWarning,0835.1,5.01,000.00,029.1,026.3,000.0,037.3,030.3,32.6,0000.0,0014.47,0005.16,0004.17
2023-07-25 01:42:00,SystemResetWarning,0835.1,5.00,000.00,029.1,026.8,000.0,037.3,030.5,31.4,0000.0,0014.54,0005.12,0004.18
2023-07-25 01:43:00,SystemResetWarning,0835.1,4.99,000.00,029.2,027.1,000.0,037.4,030.6,31.2,0000.0,0014.34,0005.07,0004.20
2023-07-25 01:44:00,SystemResetWarning,0835.1,4.99,000.00,029.2,027.4,000.0,037.4,030.6,31.1,0000.0,0014.38,0005.06,0004.20
2023-07-25 01:45:00,SystemResetWarning,0835.1,4.99,000.00,029.3,026.3,000.0,037.3,030.5,31.3,0000.0,0014.60,0005.05,0004.21
2023-07-25 01:46:00,SystemResetWarning,0835.0,5.00,000.00,029.2,025.0,000.0,037.2,030.3,31.3,0000.0,0014.35,0005.06,0004.23
2023-07-25 01:47:00,SystemResetWarning,0835.0,5.00,000.00,029.1,024.7,000.0,037.1,030.1,31.5,0000.0,0013.84,0005.08,0004.24
2023-07-25 01:48:00,SystemResetWarning,0835.1,5.01,000.00,029.0,025.0,000.0,037.2,030.0,31.2,0000.0,0013.86,0005.08,0004.24
2023-07-25 01:49:00,SystemResetWarning,0835.1,5.01,000.00,029.0,025.5,000.0,037.2,030.1,31.1,0000.0,0012.96,0005.11,0004.24
2023-07-25 01:50:00,SystemResetWarning,0835.1,4.99,000.00,029.0,026.0,000.0,037.2,030.2,31.4,0000.0,0013.37,0005.18,0004.25
2023-07-25 01:51:00,SystemResetWarning,0835.2,5.00,000.00,029.0,026.5,000.0,037.3,030.3,31.6,0000.0,0013.30,0005.25,0004.26
2023-07-25 01:52:00,SystemResetWarning,0835.1,5.00,000.00,029.0,026.9,000.0,037.3,030.5,31.4,0000.0,0012.41,0005.33,0004.28
2023-07-25 01:53:00,SystemResetWarning,0835.2,5.01,000.00,029.1,027.2,000.0,037.3,030.6,31.3,0000.0,0013.27,0005.40,0004.28
2023-07-25 01:54:00,SystemResetWarning,0835.1,5.01,000.00,029.1,027.1,000.0,037.3,030.6,31.3,0000.0,0013.42,0005.41,0004.28
2023-07-25 01:55:00,SystemResetWarning,0835.1,4.98,000.00,029.1,025.6,000.0,037.2,030.4,31.7,0000.0,0014.27,0005.48,0004.30
2023-07-25 01:56:00,SystemResetWarning,0835.1,5.01,000.00,029.0,024.7,000.0,037.1,030.2,31.9,0000.0,0014.10,0005.49,0004.31
2023-07-25 01:57:00,SystemResetWarning,0835.1,5.01,000.00,028.9,024.8,000.0,037.1,030.0,31.2,0000.0,0014.47,0005.49,0004.33
2023-07-25 01:58:00,SystemResetWarning,0835.2,5.01,000.00,028.8,025.1,000.0,037.1,029.9,31.3,0000.0,0014.89,0005.52,0004.35
2023-07-25 01:59:00,SystemResetWarning,0835.1,5.00,000.00,028.8,025.6,000.0,037.1,030.1,31.0,0000.0,0014.85,0005.55,0004.38
